Location: Caltech
(34.1382°N, 118.1253°W)
Time: 23:39:37
(UTC-07:00)

UOSAT-12 - Visible Passes

Search period start: 24 April 2017 00:00
Search period end: 04 May 2017 00:00
Orbit: 606 x 648 km, 64.6° (Epoch: 23 April)

Date Brightness Start Highest point End Pass type
(mag) Time Alt. Az. Time Alt. Az. Time Alt. Az.
26 Apr 9.8 05:37:24 10° SSE 05:40:14 17° ESE 05:43:07 10° ENE visible
29 Apr 9.5 04:56:19 10° SSE 04:59:35 20° ESE 05:02:53 10° ENE visible
30 Apr 8.0 05:14:51 10° S 05:19:09 49° ESE 05:23:32 10° NE visible
01 May 7.1 05:34:27 10° SW 05:38:54 67° WNW 05:43:27 10° NNE visible
02 May 9.0 04:15:42 12° SSE 04:18:55 24° ESE 04:22:34 10° ENE visible
03 May 7.5 04:35:31 20° S 04:38:32 60° ESE 04:43:01 10° NE visible
